Location: Lewisville
(33.0462°N, 96.9942°W)
Time: 03:18:52
(UTC-05:00)

X-37B - Visible Passes

Search period start: 11 May 2021 00:00
Search period end: 21 May 2021 00:00
Orbit: 386 x 389 km, 45.0° (Epoch: 08 May)

Date Brightness Start Highest point End Pass type
(mag) Time Alt. Az. Time Alt. Az. Time Alt. Az.
11 May 3.4 21:09:10 10° NNW 21:10:21 12° N 21:11:32 10° NNE visible
11 May 3.2 22:44:41 10° NW 22:46:04 21° NNW 22:46:04 21° NNW visible
12 May 2.6 21:46:35 10° NNW 21:49:07 21° NNE 21:50:11 18° NE visible
13 May 3.1 20:48:34 10° NNW 20:50:31 15° NNE 20:52:27 10° NE visible
13 May 1.9 22:24:23 10° NW 22:26:35 40° NW 22:26:35 40° NW visible
14 May 1.7 21:26:09 10° NW 21:29:08 35° NNE 21:30:45 21° E visible
15 May 1.1 22:04:17 10° WNW 22:07:14 50° SW 22:07:14 50° SW visible
16 May 0.7 21:05:51 10° NW 21:09:02 71° NNE 21:11:30 16° ESE visible
17 May 2.4 21:44:32 10° W 21:47:08 23° SW 21:48:07 19° SSW visible
19 May 3.4 21:26:00 10° WSW 21:26:47 11° SW 21:27:33 10° SSW visible
